sat.trackr.live / text

‹ back to catalog

STARLINK-34812

NORAD 66026 · 2025-232X

PAYLOAD ACTIVE UNKNOWN

§ Identity

Operator
Country
US
Launch date
2025-10-16
Launch site
AFETR
Launch vehicle
Mass (kg)
RCS (m²)

Purposes: comms

External: N2YO · Heavens-Above · Gunter

§ Orbital elements

Epoch: 2026-05-25T04:00:03.998880Z

Period
93.85 min
Inclination
53.1589°
Eccentricity
0.0001081
Mean motion
15.34413898 rev/d
Perigee alt
461.9 km
Apogee alt
463.4 km
Semi-major
6,840.8 km
B*
1.2650e-4
RAAN
108.8496°
Arg perigee
80.0979°
Mean anomaly
225.8737°
Rev number
585

§ Raw data

STARLINK-348121 66026U 25232X   26145.16671295  .00003902  00000+0  12650-3 0  99992 66026  53.1589 108.8496 0001081  80.0979 225.8737 15.34413898  5850

JSON: /api/v1/satellites/66026 · /tle

For live sub-satellite position, see the globe view (requires WebGL).

§ Visibility from observer

Set your observer location to see the next 7 days of passes ≥ 10°. The values pass through the URL so the page stays shareable.

No JS? Fill the form by hand. The geolocation button needs JavaScript.